#timestamp,LO_Frequency,Hit,StdDev 
1625655615.5,286046996.5,P
1625655635.4,286046996.9,N
1625655655.2,286046999.6,N
1625655675.0,286046997.0,N
1625655675.9,286046997.0,N
1625655695.8,286046997.5,N
1625655715.6,286046996.9,N
1625655735.5,286046996.9,Y
1625655755.3,286047000.5,P
1625655775.1,286047001.2,N
1625655795.9,286047001.2,N
1625655815.7,286046998.5,N
1625655835.6,286046998.6,N
1625655855.4,286046999.0,N
1625655875.2,286046999.4,N
1625655895.1,286046996.7,N
1625655896.0,286046996.7,N
1625655945.8,286046999.2,E
1625655955.8,286046996.5,N
1625655975.6,286046999.2,P
1625655995.4,286046996.6,N
1625656015.3,286046996.9,N
1625656035.1,286046996.8,N
1625656055.9,286046997.2,N
1625656075.7,286046996.7,Y
1625656095.5,286047000.9,P
1625656115.4,286047000.9,N
1625656135.2,286046998.5,N
1625656155.0,286047000.8,N
1625656155.9,286047000.8,N
1625656205.8,286046998.9,E
1625656215.7,286046998.2,N
1625656235.6,286047000.5,P
1625656255.4,286047000.8,N
1625656275.3,286046998.5,N
1625656295.1,286047000.8,N
1625656296.0,286047000.8,N
1625656315.8,286047000.8,N
1625656335.7,286047001.1,N
1625656355.5,286046998.2,N
1625656375.3,286046998.1,N
1625656395.2,286047000.8,N
1625656415.0,286046998.2,N
1625656415.9,286046998.2,N
1625656435.8,286046998.1,N
1625656455.6,286047000.8,N
1625656475.4,286047000.8,N
1625656495.3,286047000.8,N
1625656515.1,286047000.8,N
1625656535.8,286047000.8,N
1625656555.7,286047000.7,N
1625656575.5,286046999.8,N
1625656595.4,286047000.7,N
1625656615.2,286047001.0,N
1625656635.0,286047000.3,N
1625656635.9,286047000.3,N
1625656655.8,286047000.4,N
1625656675.6,286047000.3,N
1625656695.5,286047002.7,N
1625656715.3,286047001.5,N
1625656735.1,286047002.1,N
1625656755.9,286047002.0,N
1625656775.7,286047002.2,N
1625656795.5,286047002.0,N
1625656815.4,286047002.2,N
1625656835.2,286047001.5,N
1625656855.1,286047001.5,N
1625656856.0,286047001.5,N
1625656875.8,286047002.0,N
1625656895.6,286047001.7,N
1625656915.5,286047002.5,N
1625656935.3,286047002.2,N
1625656955.2,286047002.3,N
1625656975.9,286047002.6,N
1625656995.7,286047002.4,N
1625657015.6,286047002.6,Y
1625657035.4,286047000.5,P
1625657055.3,286047001.2,N
1625657075.1,286046998.5,P
1625657076.0,286046998.5,N
1625657095.8,286046998.2,N
1625657115.7,286046998.5,N
1625657135.5,286046998.1,N
1625657155.3,286046998.5,N
1625657175.2,286046998.5,N
1625657195.0,286046998.2,N
1625657195.9,286046998.2,N
1625657215.8,286046998.6,N
1625657235.6,286046998.7,N
1625657255.4,286047001.2,N
1625657275.3,286046998.3,N
1625657295.1,286046998.6,N
1625657315.8,286046998.2,N
1625657335.7,286046998.7,N
1625657355.5,286046998.7,N
1625657375.4,286046998.4,N
1625657395.2,286046998.4,N
1625657415.0,286046998.8,N
1625657415.9,286046998.8,N
1625657435.8,286046998.7,N
1625657455.6,286046998.9,N
1625657475.5,286046998.9,N
1625657495.3,286046999.2,N
1625657515.1,286046999.3,N
1625657535.9,286046999.1,N
1625657555.7,286046996.6,Y
1625657575.5,286046998.7,P
1625657595.4,286046998.9,P
1625657615.2,286046999.1,P
1625657635.1,286046998.9,Y
1625657636.0,286046998.9,P
1625657685.8,286046998.6,E
1625657695.8,286046998.5,N
1625657715.6,286047000.5,P
1625657735.4,286047002.8,N
1625657755.3,286046999.7,N
1625657775.1,286047000.2,N
1625657795.8,286046999.8,N
1625657815.7,286047002.8,N
1625657835.5,286047002.3,N
1625657855.4,286047002.8,N
1625657875.2,286046999.8,N
1625657895.0,286046999.7,N
1625657895.9,286046999.7,N
1625657915.8,286047000.2,N
1625657935.6,286047000.1,N
1625657955.5,286047000.4,N
1625657975.3,286047000.1,N
1625657995.1,286046999.9,N
1625658015.9,286047000.0,N
1625658035.7,286046999.9,N
1625658055.5,286047000.0,N
1625658075.4,286047000.0,N
1625658095.2,286047000.7,N
1625658115.1,286047000.1,N
1625658116.0,286047000.1,N
1625658135.8,286047001.2,N
1625658155.6,286046998.1,N
1625658175.5,286046998.1,N
1625658195.3,286047000.7,N
1625658215.2,286047000.7,N
1625658235.9,286047001.1,N
1625658255.7,286047000.7,N
1625658275.6,286047000.9,N
1625658295.4,286046998.1,N
1625658315.2,286046998.3,N
1625658335.1,286047001.2,N
1625658336.0,286047001.2,N
1625658355.8,286046998.6,N
1625658375.7,286046999.0,N
1625658395.5,286046998.6,N
1625658415.3,286046998.2,N
1625658435.2,286046998.5,N
1625658455.0,286046998.9,N
1625658455.9,286046998.9,N
1625658475.8,286046998.7,N
1625658495.6,286046998.1,N
1625658515.4,286046998.1,N
1625658535.3,286046998.5,N
1625658555.1,286046998.3,N
1625658575.8,286046998.3,N
1625658595.7,286046998.9,N
1625658615.5,286046996.6,N
1625658635.4,286046999.0,N
1625658655.2,286046999.5,N
1625658675.0,286046999.5,N
1625658675.9,286046999.5,N
1625658695.8,286046999.6,N
1625658715.6,286046996.6,Y
1625658735.5,286046999.5,P
1625658755.3,286046998.8,P
1625658775.1,286046999.0,P
1625658795.9,286046998.9,Y
1625658815.7,286046998.2,P
1625658835.5,286046998.5,P
1625658855.4,286047001.0,N
1625658875.2,286046998.5,N
1625658895.1,286046998.2,N
1625658896.0,286046998.2,N
1625658915.8,286046998.6,N
1625658935.6,286047000.8,N
1625658955.5,286046999.3,N
1625658975.3,286046998.5,N
1625658995.2,286046998.2,N
1625659015.9,286046999.3,N
1625659035.7,286046998.7,N
1625659055.6,286046998.8,N
1625659075.4,286046998.7,N
1625659095.2,286046999.1,N
1625659115.1,286046999.1,N
1625659116.0,286046999.1,N
1625659135.8,286046999.6,N
1625659155.7,286046999.5,N
1625659175.5,286046999.5,N
1625659195.3,286046999.6,N
